Flag for Switzerland Weather past 2 weeks in Lugano, Switzerland

59 °F

Scattered showers. Broken clouds.

Feels Like: 60 °F
Forecast: 50 / 67 °F
Wind: 3 mph from North

Location: Lugano Airport

Current Time: Oct 9, 2015 at 1:02:51 PM

Latest Report: Oct 9, 2015 at 12:20 PM

Visibility: N/A

Pressure: 30.09 "Hg

Humidity: 88%

Dew point: 55 °F

Location of LuganoLocation

Historic Weather in Lugano — Graph


Lugano temperature yesterday

Maximum temperature yesterday: 72 °F (at 2:50 PM)
Minimum temperature yesterday: 55 °F (at 5:20 AM)
Average temperature yesterday: 61 °F

Past Weeks' High & Low Weather Summary

High75 °F (Sep 25, 2:50 PM)100% (Sep 26, 1:50 AM)30.39 "Hg (Sep 26, 1:50 AM)
Low46 °F (Sep 25, 6:50 AM)31% (Sep 24, 2:50 PM)29.80 "Hg (Oct 7, 1:50 AM)
Average59 °F79%30.12 "Hg
* Reported Sep 24 11:20 AM — Oct 9 11:50 AM, Lugano, Weather by CustomWeather, © 2015

Note: Actual official high and low records may vary slightly from our data, if they occured in-between our weather recording intervals... More about our weather records


Lugano weather history for previous 24 hours

Time TempWeatherWind HumidityBarometerVisibility
11:50 AM
Fri, Oct 9
59 °FScattered showers. Broken clouds.2 mph88%30.09 "HgN/A
11:20 AM57 °FSprinkles. Broken clouds.3 mph94%30.09 "HgN/A
10:50 AM57 °FScattered showers. Broken clouds.2 mph88%30.09 "HgN/A
10:20 AM59 °FScattered showers. Broken clouds.6 mph82%30.09 "HgN/A
9:50 AM59 °FScattered showers. Broken clouds.1 mph88%30.09 "HgN/A
9:20 AM59 °FScattered showers. Broken clouds.2 mph88%30.07 "HgN/A
8:50 AM59 °FScattered showers. Broken clouds.2 mph88%30.07 "HgN/A
8:20 AM57 °FScattered showers. Partly cloudy.2 mph94%30.07 "HgN/A
7:50 AM57 °FScattered showers. Partly cloudy.3 mph88%30.07 "HgN/A
7:20 AM57 °FScattered showers. Partly cloudy.6 mph94%30.07 "HgN/A
6:50 AM57 °FScattered showers. Partly cloudy.2 mph94%30.04 "HgN/A
6:20 AM57 °FScattered showers. Partly cloudy.2 mph94%30.04 "HgN/A
5:20 AM57 °FPartly cloudy.2 mph94%30.07 "HgN/A
4:50 AM55 °FPartly cloudy.1 mph100%30.07 "HgN/A
4:20 AM57 °FPartly cloudy.1 mph94%30.07 "HgN/A
3:50 AM57 °FPartly cloudy.1 mph94%30.07 "HgN/A
3:20 AM55 °FPassing clouds.1 mph100%30.07 "HgN/A
2:50 AM55 °FPassing clouds.No wind94%30.07 "HgN/A
2:20 AM57 °FPartly cloudy.1 mph94%30.04 "HgN/A
1:50 AM57 °FPassing clouds.1 mph94%30.07 "HgN/A
1:20 AM57 °FPartly cloudy.1 mph94%30.07 "HgN/A
12:50 AM57 °FPartly cloudy.3 mph94%30.07 "HgN/A
12:20 AM57 °FPartly cloudy.2 mph94%30.07 "HgN/A
11:20 PM
Thu, Oct 8
57 °FPassing clouds.1 mph94%30.07 "HgN/A
10:50 PM57 °FPassing clouds.3 mph94%30.07 "HgN/A
10:20 PM57 °FPassing clouds.2 mph94%30.07 "HgN/A
9:50 PM57 °FPassing clouds.3 mph94%30.04 "HgN/A
9:20 PM57 °FPassing clouds.1 mph94%30.04 "HgN/A
8:50 PM57 °FPassing clouds.1 mph94%30.04 "HgN/A
8:20 PM59 °FPassing clouds.2 mph94%30.01 "HgN/A
7:50 PM61 °FScattered clouds.2 mph83%30.01 "HgN/A
7:20 PM61 °FPassing clouds.1 mph88%30.01 "HgN/A
6:50 PM64 °FFog.2 mph78%29.98 "HgN/A
6:20 PM66 °FPassing clouds.5 mph73%29.98 "HgN/A
5:50 PM70 °FPassing clouds.5 mph69%29.98 "HgN/A
5:20 PM70 °FPassing clouds.5 mph64%29.95 "HgN/A
4:50 PM72 °FScattered clouds.7 mph57%29.98 "HgN/A
4:20 PM72 °FPassing clouds.7 mph61%29.98 "HgN/A
3:50 PM72 °FPassing clouds.7 mph57%29.98 "HgN/A
3:20 PM72 °FSunny.7 mph61%29.98 "Hg10 mi
2:50 PM72 °FPassing clouds.6 mph61%29.98 "HgN/A
2:20 PM70 °FPassing clouds.6 mph64%29.98 "HgN/A
1:50 PM70 °FPassing clouds.5 mph64%29.98 "HgN/A
1:20 PM68 °FPassing clouds.5 mph64%30.01 "HgN/A
Weather by CustomWeather, © 2015

See weather overviewHow to use our weather pages